FENGYUN 1C DEB

Satellite information

Favourite Embed

Satellite Type and Status

DEBRISIN ORBIT

Key statistics

Satellite FENGYUN 1C DEB at a glance.

Uptime

9663

Days in orbit

Revolutions

≈ 14.5

Per day

Orbit

SSO

Sun Synchronous Orbit

Inclination

99.0

Latest

Satellite identification and parameters

Extended collection of information and parameters for FENGYUN 1C DEB.

Object identification

Identified? True

Debris? True

Object name: FENGYUN 1C DEB

International designator: 1999-025AVY

Object number (NORAD): 30838

Object ID (CCSDS): 30838

Country: PEOPLES REPUBLIC OF CHINA (PRC)

Current information (Y/N): Y

RCS size: SMALL

Orbital parameters

Period: 99.563 minutes

Inclination: 99.0395 deg

SMA: 7115.812 km

Apoapsis: 764.972 km

Periapsis: 710.383 km

RAAN: 205.8718 deg

Eccentricy: 0.00383574

Argument of periapsis: 318.5111 deg

Mean anomaly: 41.3169 deg

Mean motion: 14.46325472 rev/day

Mean motion (dot): 0.00011595 rev/day2

B* drag term: 0.0032125407 1/REarth

Two-line elements (TLE)

Creation date: Oct. 23, 2025, 2:46 a.m.

Reference frame: TEME

Reference center: EARTH

Epoch: Oct. 22, 2025, 11 a.m. UTC

TLE line 0: 0 FENGYUN 1C DEB

TLE line 1: 1 30838U 99025AVY 25295.45853122 .00011595 00000-0 32125-2 0 9996

TLE line 2: 2 30838 99.0395 205.8718 0038357 318.5111 41.3169 14.46325472965727

Live tracking on map

Real-time ground track for satellite FENGYUN 1C DEB.

In-orbit conjunctions

A list of the most updated potential collisions computed for object FENGYUN 1C DEB.

Target Orbit TCA Probability of collision Miss distance Type
DELTA 1 DEB SSO 2025-08-16 12:03:16 0.0002079475 289.0 (m) DEBRIS
CZ-4B DEB SSO 2025-06-05 00:19:26 0.0004433212 18.0 (m) DEBRIS
NOAA 16 DEB SSO 2024-09-25 18:42:12 0.0002099051 212.0 (m) DEBRIS

Associated space launch

Chinese polar orbiting meteorological satellite

FENGYUN 1C DEB was lifted into orbit during the mission ‘Long March 4B | Feng Yun 1C’, on board a Long March 4B space rocket.

The launch took place on May 10, 1999, 1:33 a.m. from Launch Complex 7.

For more information about the launch, click the button.

Launch to space Long March 4B | Feng Yun 1C
Long March 4B | Feng Yun 1C

Agency: N/A

Status: Launch Successful

Launch date: May 10, 1999, 1:33 a.m. UTC

Rocket: Long March 4B

Launch pad: Launch Complex 7

Location: Taiyuan Satellite Launch Center, People's Republic of China

...

Latest news about this satellite

There are no fresh news available about this satellite. Check back as we update our databases every day.


Newsletter sign-up

Weekly statistics, charts and insights to help you stay on top of the space industry.